Weather History for Show Low, AZ

Change the Weather History Date:

Tuesday, November 19, 2013

  Actual Average Record
Temperature  
Mean Temperature 44 °F -  
Max Temperature 57 °F 52 °F 71 °F (1996)
Min Temperature 32 °F 32 °F 12 °F (1975)
Degree Days  
Heating Degree Days 20    
Moisture  
Dew Point 30 °F    
Average Humidity 57    
Maximum Humidity 87    
Minimum Humidity 29    
Precipitation  
Precipitation 0.00 in - - ()
Sea Level Pressure  
Sea Level Pressure 30.07 in    
Wind  
Wind Speed 10 mph (SSW)    
Max Wind Speed 22 mph    
Max Gust Speed 28 mph    
Visibility 10 miles    
Events      
Averages and records for this station are not official NWS values.
T = Trace of Precipitation, MM = Missing Value Source: NWS Daily Summary

Daily Weather History Graph

Daily Weather History Graph

Search for Another Location

Airport:

Trip Planner

Search our weather history database for the weather conditions in past years. The results will help you decide how hot, cold, wet, or windy it might be!

Date:

Astronomy

Nov. 19, 2013 Rise Set
Actual Time 6:57 AM MST 5:13 PM MST
Civil Twilight 6:30 AM MST 5:40 PM MST
Nautical Twilight 5:59 AM MST 6:10 PM MST
Astronomical Twilight 5:29 AM MST 6:40 PM MST
Moon 7:08 PM MST (11/19) 8:38 AM MST (11/19)
Length of Visible Light 11h 10m
Length of Day
10h 16m
Waning Gibbous, 96% of the Moon is Illuminated
Nov 19
Waning Gibbous
Nov 25
Last Quarter
Dec 2
New
Dec 9
First Quarter
Dec 17
Full

Hourly Weather History & Observations

Time (MST) Temp. Windchill Dew Point Humidity Pressure Visibility Wind Dir Wind Speed Gust Speed Precip Events Conditions
12:15 AM 37.4 °F 32.8 °F 32.0 °F 81% 30.18 in 10.0 mi SSE 5.8 mph - N/A   Clear
12:35 AM 35.6 °F 32.8 °F 30.2 °F 81% 30.17 in 10.0 mi South 3.5 mph - N/A   Clear
12:55 AM 35.6 °F 31.7 °F 30.2 °F 81% 30.17 in 10.0 mi South 4.6 mph - N/A   Clear
1:15 AM 33.8 °F 28.6 °F 28.4 °F 81% 30.16 in 10.0 mi South 5.8 mph - N/A   Clear
1:35 AM 32.0 °F 25.6 °F 28.4 °F 87% 30.16 in 10.0 mi South 6.9 mph - N/A   Clear
1:55 AM 32.0 °F - 28.4 °F 87% 30.16 in 10.0 mi Calm Calm - N/A   Clear
2:15 AM 32.0 °F - 28.4 °F 87% 30.15 in 10.0 mi Calm Calm - N/A   Clear
2:35 AM 37.4 °F 29.8 °F 30.2 °F 75% 30.14 in 10.0 mi South 11.5 mph - N/A   Clear
2:55 AM 39.2 °F 33.0 °F 30.2 °F 70% 30.13 in 10.0 mi South 9.2 mph - N/A   Clear
3:15 AM 39.2 °F 33.6 °F 30.2 °F 70% 30.15 in 10.0 mi SSW 8.1 mph - N/A   Clear
3:35 AM 37.4 °F 30.8 °F 30.2 °F 75% 30.14 in 10.0 mi South 9.2 mph - N/A   Clear
3:55 AM 37.4 °F 30.8 °F 30.2 °F 75% 30.13 in 10.0 mi South 9.2 mph - N/A   Clear
4:15 AM 37.4 °F 30.3 °F 30.2 °F 75% 30.12 in 10.0 mi South 10.4 mph - N/A   Clear
4:35 AM 39.2 °F 32.5 °F 30.2 °F 70% 30.12 in 10.0 mi South 10.4 mph - N/A   Clear
4:55 AM 39.2 °F 33.0 °F 30.2 °F 70% 30.11 in 10.0 mi South 9.2 mph - N/A   Clear
5:15 AM 39.2 °F 32.5 °F 30.2 °F 70% 30.10 in 10.0 mi South 10.4 mph - N/A   Clear
5:55 AM 39.2 °F 32.0 °F 32.0 °F 75% 30.10 in 10.0 mi South 11.5 mph - N/A   Clear
6:15 AM 39.2 °F 31.6 °F 32.0 °F 75% 30.10 in 10.0 mi South 12.7 mph - N/A   Clear
6:35 AM 41.0 °F 33.5 °F 32.0 °F 70% 30.10 in 10.0 mi South 13.8 mph - N/A   Clear
6:55 AM 41.0 °F 33.5 °F 32.0 °F 70% 30.10 in 10.0 mi South 13.8 mph - N/A   Clear
7:15 AM 41.0 °F 33.1 °F 32.0 °F 70% 30.11 in 10.0 mi South 15.0 mph - N/A   Clear
7:35 AM 41.0 °F 32.2 °F 32.0 °F 70% 30.11 in 10.0 mi South 18.4 mph - N/A   Clear
7:55 AM 44.6 °F 37.2 °F 32.0 °F 61% 30.10 in 10.0 mi South 17.3 mph - N/A   Clear
8:15 AM 46.4 °F 39.2 °F 32.0 °F 57% 30.10 in 10.0 mi South 18.4 mph 23.0 mph N/A   Clear
8:35 AM 48.2 °F - 32.0 °F 54% 30.10 in 10.0 mi South 19.6 mph 24.2 mph N/A   Clear
8:55 AM 50.0 °F - 33.8 °F 54% 30.10 in 10.0 mi South 18.4 mph 24.2 mph N/A   Clear
9:15 AM 50.0 °F - 33.8 °F 54% 30.11 in 10.0 mi SSW 17.3 mph - N/A   Clear
9:35 AM 51.8 °F - 32.0 °F 47% 30.11 in 10.0 mi SSW 17.3 mph 26.5 mph N/A   Clear
9:55 AM 51.8 °F - 32.0 °F 47% 30.11 in 10.0 mi SSW 21.9 mph - N/A   Clear
10:15 AM 53.6 °F - 32.0 °F 44% 30.11 in 10.0 mi SSW 19.6 mph 25.3 mph N/A   Clear
10:35 AM 53.6 °F - 32.0 °F 44% 30.11 in 10.0 mi SSW 16.1 mph 25.3 mph N/A   Clear
10:55 AM 55.4 °F - 32.0 °F 41% 30.10 in 10.0 mi SSW 19.6 mph 24.2 mph N/A   Clear
11:15 AM 53.6 °F - 32.0 °F 44% 30.09 in 10.0 mi SSW 16.1 mph 21.9 mph N/A   Clear
11:35 AM 55.4 °F - 32.0 °F 41% 30.08 in 10.0 mi SW 16.1 mph 21.9 mph N/A   Clear
11:55 AM 55.4 °F - 28.4 °F 36% 30.06 in 10.0 mi South 19.6 mph - N/A   Clear
12:15 PM 55.4 °F - 28.4 °F 36% 30.05 in 10.0 mi South 20.7 mph 25.3 mph N/A   Clear
12:35 PM 57.2 °F - 24.8 °F 29% 30.04 in 10.0 mi SSW 20.7 mph 26.5 mph N/A   Clear
12:55 PM 55.4 °F - 23.0 °F 29% 30.04 in 10.0 mi SW 21.9 mph - N/A   Clear
1:15 PM 57.2 °F - 28.4 °F 33% 30.03 in 10.0 mi SSW 18.4 mph 27.6 mph N/A   Clear
1:35 PM 57.2 °F - 28.4 °F 33% 30.03 in 10.0 mi SSW 17.3 mph 25.3 mph N/A   Clear
1:55 PM 57.2 °F - 24.8 °F 29% 30.03 in 10.0 mi SSW 18.4 mph 27.6 mph N/A   Clear
2:15 PM 57.2 °F - 24.8 °F 29% 30.02 in 10.0 mi SW 18.4 mph 26.5 mph N/A   Clear
2:35 PM 57.2 °F - 26.6 °F 31% 30.01 in 10.0 mi SW 17.3 mph 21.9 mph N/A   Clear
2:55 PM 57.2 °F - 24.8 °F 29% 30.00 in 10.0 mi SSW 19.6 mph 23.0 mph N/A   Unknown
3:15 PM 57.2 °F - 24.8 °F 29% 30.00 in 10.0 mi SSW 20.7 mph 25.3 mph N/A   Unknown
3:35 PM 55.4 °F - 26.6 °F 33% 30.01 in 10.0 mi SW 18.4 mph 24.2 mph N/A   Clear
3:55 PM 55.4 °F - 26.6 °F 33% 30.01 in 10.0 mi SW 17.3 mph - N/A   Clear
4:15 PM 53.6 °F - 24.8 °F 33% 30.01 in 10.0 mi SW 13.8 mph 20.7 mph N/A   Clear
4:35 PM 53.6 °F - 26.6 °F 35% 30.01 in 10.0 mi SW 11.5 mph - N/A   Clear
4:55 PM 51.8 °F - 28.4 °F 41% 30.02 in 10.0 mi SW 10.4 mph - N/A   Clear
5:15 PM 50.0 °F - 32.0 °F 50% 30.01 in 10.0 mi SW 8.1 mph - N/A   Clear
5:35 PM 50.0 °F - 32.0 °F 50% 30.02 in 10.0 mi SSW 5.8 mph - N/A   Clear
5:55 PM 50.0 °F - 32.0 °F 50% 30.02 in 10.0 mi SSW 8.1 mph - N/A   Clear
6:15 PM 50.0 °F - 32.0 °F 50% 30.02 in 10.0 mi South 5.8 mph - N/A   Clear
6:35 PM 48.2 °F - 32.0 °F 54% 30.02 in 10.0 mi SSW 5.8 mph - N/A   Clear
6:55 PM 48.2 °F - 33.8 °F 58% 30.02 in 10.0 mi SSW 8.1 mph - N/A   Clear
7:15 PM 48.2 °F - 33.8 °F 58% 30.03 in 10.0 mi SW 6.9 mph - N/A   Clear
7:35 PM 46.4 °F 43.5 °F 33.8 °F 62% 30.04 in 10.0 mi SW 5.8 mph - N/A   Clear
7:55 PM 46.4 °F 42.4 °F 33.8 °F 62% 30.03 in 10.0 mi South 8.1 mph - N/A   Clear
8:15 PM 46.4 °F 41.1 °F 33.8 °F 62% 30.02 in 10.0 mi South 11.5 mph - N/A   Clear
8:35 PM 46.4 °F 40.7 °F 33.8 °F 62% 30.02 in 10.0 mi SSW 12.7 mph - N/A   Clear
8:55 PM 44.6 °F 39.2 °F 33.8 °F 66% 30.02 in 10.0 mi South 10.4 mph - N/A   Clear
9:15 PM 42.8 °F 38.0 °F 33.8 °F 70% 30.02 in 10.0 mi South 8.1 mph - N/A   Clear
9:35 PM 41.0 °F 35.8 °F 32.0 °F 70% 30.02 in 10.0 mi South 8.1 mph - N/A   Clear
9:55 PM 41.0 °F 38.0 °F 32.0 °F 70% 30.03 in 10.0 mi SSW 4.6 mph - N/A   Clear
10:15 PM 41.0 °F 37.1 °F 32.0 °F 70% 30.02 in 10.0 mi SSW 5.8 mph - N/A   Clear
10:35 PM 41.0 °F 37.1 °F 32.0 °F 70% 30.02 in 10.0 mi SW 5.8 mph - N/A   Clear
10:55 PM 41.0 °F 38.0 °F 32.0 °F 70% 30.02 in 10.0 mi SSW 4.6 mph - N/A   Clear
11:15 PM 39.2 °F 34.2 °F 30.2 °F 70% 30.02 in 10.0 mi South 6.9 mph - N/A   Clear
11:35 PM 41.0 °F 35.8 °F 28.4 °F 61% 30.02 in 10.0 mi South 8.1 mph - N/A   Clear
11:55 PM 41.0 °F 34.7 °F 28.4 °F 61% 30.01 in 10.0 mi South 10.4 mph - N/A   Clear